Weather History for Budapest Ferihegy, Hungary

Change the Weather History Date:

Thursday, August 16, 2012

  Actual Average Record
Temperature  
Mean Temperature 70 °F -  
Max Temperature 86 °F 72 °F 91 °F (2007)
Min Temperature 53 °F 52 °F 46 °F (2004)
Cooling Degree Days 4    
Growing Degree Days 20 (Base 50)    
Moisture  
Dew Point 49 °F    
Average Humidity 53    
Maximum Humidity 82    
Minimum Humidity 23    
Precipitation  
Precipitation 0.00 in - - ()
Sea Level Pressure  
Sea Level Pressure 29.98 in    
Wind  
Wind Speed 5 mph ()    
Max Wind Speed 10 mph    
Max Gust Speed -    
Averages and records for this station are not official NWS values.
T = Trace of Precipitation, MM = Missing Value Source: Averaged Metar Reports

Daily Weather History Graph

Daily Weather History Graph

Search for Another Location

Airport:

Trip Planner

Search our weather history database for the weather conditions in past years. The results will help you decide how hot, cold, wet, or windy it might be!

Date:

Astronomy

Aug. 16, 2012 Rise Set
Actual Time 5:40 AM CEST 7:52 PM CEST
Civil Twilight 5:07 AM CEST 8:26 PM CEST
Nautical Twilight 4:25 AM CEST 9:07 PM CEST
Astronomical Twilight 3:38 AM CEST 9:54 PM CEST
Moon 4:19 AM CEST (8/16) 6:50 PM CEST (8/16)
Length of Visible Light 15h 19m
Length of Day
14h 11m
Waning Crescent, 2% of the Moon is Illuminated
Aug 16
Waning Crescent
Aug 17
New
Aug 24
First Quarter
Aug 31
Full
Sep 8
Last Quarter

Hourly Weather History & Observations

Time (CEST) Temp. Dew Point Humidity Pressure Visibility Wind Dir Wind Speed Gust Speed Precip Events Conditions
12:00 AM 59.0 °F 48.2 °F 67% 29.95 in - Variable 2.3 mph - N/A   Clear
12:30 AM 60.8 °F 46.4 °F 59% 29.95 in - NE 8.1 mph - N/A   Clear
1:00 AM 64.4 °F 48.2 °F 56% 29.95 in - NE 6.9 mph - N/A   Clear
1:30 AM 62.6 °F 50.0 °F 63% 29.95 in - NE 8.1 mph - N/A   Clear
2:00 AM 62.6 °F 51.8 °F 68% 29.95 in - ENE 8.1 mph - N/A   Clear
2:30 AM 62.6 °F 51.8 °F 68% 29.95 in - ENE 9.2 mph - N/A   Clear
3:00 AM 60.8 °F 51.8 °F 72% 29.95 in - ENE 8.1 mph - N/A   Clear
3:30 AM 59.0 °F 51.8 °F 77% 29.95 in - Variable 2.3 mph - N/A   Clear
4:00 AM 55.4 °F 50.0 °F 82% 29.95 in - Variable 1.2 mph - N/A   Clear
4:30 AM 57.2 °F 50.0 °F 77% 29.95 in - Variable 1.2 mph - N/A   Clear
5:00 AM 55.4 °F 50.0 °F 82% 29.95 in - Variable 2.3 mph - N/A   Clear
5:30 AM 57.2 °F 50.0 °F 77% 29.95 in - Variable 3.5 mph - N/A   Clear
6:00 AM 53.6 °F 48.2 °F 82% 29.98 in - Variable 3.5 mph - N/A   Clear
6:30 AM 55.4 °F 50.0 °F 82% 29.98 in - Variable 1.2 mph - N/A   Clear
7:00 AM 59.0 °F 53.6 °F 82% 29.98 in - Variable 3.5 mph - N/A   Clear
7:30 AM 64.4 °F 53.6 °F 68% 29.98 in - Calm Calm - N/A   Clear
8:00 AM 66.2 °F 51.8 °F 60% 29.98 in - ENE 6.9 mph - N/A   Clear
8:30 AM 66.2 °F 53.6 °F 64% 29.98 in - East 10.4 mph - N/A   Clear
9:00 AM 68.0 °F 53.6 °F 60% 29.98 in - East 10.4 mph - N/A   Clear
9:30 AM 69.8 °F 53.6 °F 56% 30.01 in - ESE 8.1 mph - N/A   Clear
10:00 AM 71.6 °F 53.6 °F 53% 30.01 in - ESE 6.9 mph - N/A   Clear
10:30 AM 71.6 °F 51.8 °F 50% 30.01 in - SE 5.8 mph - N/A   Clear
11:00 AM 73.4 °F 53.6 °F 50% 30.01 in - Variable 3.5 mph - N/A   Clear
11:30 AM 75.2 °F 51.8 °F 44% 30.01 in - Variable 2.3 mph - N/A   Clear
12:00 PM 77.0 °F 51.8 °F 41% 30.01 in - Variable 3.5 mph - N/A   Clear
12:30 PM 78.8 °F 50.0 °F 36% 30.01 in - Variable 3.5 mph - N/A   Clear
1:00 PM 78.8 °F 50.0 °F 36% 30.01 in - NNW 4.6 mph - N/A   Clear
1:30 PM 78.8 °F 48.2 °F 34% 29.98 in - NW 8.1 mph - N/A   Clear
2:00 PM 80.6 °F 50.0 °F 34% 29.98 in - West 6.9 mph - N/A   Clear
2:30 PM 80.6 °F 48.2 °F 32% 29.98 in - North 4.6 mph - N/A   Clear
3:00 PM 82.4 °F 48.2 °F 30% 29.98 in - NW 8.1 mph - N/A   Clear
3:30 PM 84.2 °F 44.6 °F 25% 29.98 in - NNW 10.4 mph - N/A   Clear
4:00 PM 86.0 °F 44.6 °F 23% 29.98 in - NW 8.1 mph - N/A   Clear
4:30 PM 82.4 °F 42.8 °F 25% 29.98 in - NNW 8.1 mph - N/A   Clear
5:00 PM 82.4 °F 42.8 °F 25% 29.98 in - NNW 6.9 mph - N/A   Clear
5:30 PM 82.4 °F 46.4 °F 28% 29.98 in - WNW 6.9 mph - N/A   Clear
6:00 PM 80.6 °F 46.4 °F 30% 29.98 in - NW 9.2 mph - N/A   Clear
6:30 PM 80.6 °F 46.4 °F 30% 29.98 in - NW 5.8 mph - N/A   Clear
7:00 PM 78.8 °F 48.2 °F 34% 29.98 in - NW 5.8 mph - N/A   Clear
8:00 PM 73.4 °F 46.4 °F 38% 30.01 in - WNW 5.8 mph - N/A   Clear
8:30 PM 69.8 °F 48.2 °F 46% 30.01 in - NW 4.6 mph - N/A   Clear
9:00 PM 68.0 °F 48.2 °F 49% 30.01 in - Variable 3.5 mph - N/A   Clear
9:30 PM 66.2 °F 48.2 °F 52% 30.01 in - Variable 1.2 mph - N/A   Clear
10:00 PM 64.4 °F 48.2 °F 56% 30.01 in - Calm Calm - N/A   Clear
10:30 PM 62.6 °F 48.2 °F 59% 30.04 in - Variable 2.3 mph - N/A   Clear
11:00 PM 62.6 °F 50.0 °F 63% 30.04 in - Variable 2.3 mph - N/A   Clear
11:30 PM 60.8 °F 48.2 °F 63% 30.04 in - Variable 1.2 mph - N/A   Clear